Temp
16 17 17 18 17 16 16 17 16 18 19 19 19 20 22 20 22 23 20 21 21 21 19 17 18 18 17 17 16 16 16 16 16 17 17 16 16 15 16 16 16 16 16 16 16 15 15 15 15
16 16 17 17 16 16 16 15 17 17 18 18 19 19 19 20 19 20 20 21 21 20 19 18 18 17 17 17 16 16 16 16 16 17 17 16 16 15 15 15 16 16 17 17 16 16 15 15 15
16 16 17 15 13 16 17 16 16 16 18 18 19 18 18 17 18 19 20 21 20 20 19 17 17 16 17 17 16 16 15 16 16 17 17 16 16 15 15 16 16 16 17 17 17 16 16 16 15
15 15 15 15 14 15 16 16 15 16 18 19 19 18 17 17 18 18 20 20 20 20 18 17 16 16 16 16 16 16 16 16 16 17 16 16 16 15 14 16 16 16 16 16 16 16 16 16 16
15 14 14 13 14 14 15 15 15 16 16 18 18 18 16 17 17 18 19 20 19 19 17 16 16 16 16 16 16 16 16 17 17 17 15 14 14 14 17 16 16 17 16 16 16 16 16 16 16
14 13 13 13 14 14 14 15 15 14 15 17 17 16 16 17 17 18 18 19 19 18 16 16 16 16 16 16 15 16 16 17 17 17 16 14 14 15 17 17 17 17 17 17 17 17 16 16 16
12 12 13 13 14 14 15 15 14 13 14 16 15 17 16 16 17 18 18 18 18 18 16 16 15 16 16 16 15 15 16 16 17 17 17 17 17 18 17 17 17 17 16 16 16 16 16 16 16
12 11 12 13 14 15 14 14 14 14 15 15 15 15 16 16 16 17 17 17 17 17 17 15 15 16 16 15 15 15 15 15 16 17 17 17 17 18 17 17 17 16 16 16 16 16 16 16 16
10 10 11 13 14 14 13 14 13 15 15 14 13 13 14 15 16 16 16 16 16 16 16 16 15 15 15 15 15 14 14 15 15 16 17 17 17 17 17 17 17 17 16 16 16 16 16 16 16
10 10 12 13 13 12 13 13 12 14 14 14 15 15 14 15 15 16 16 16 16 16 16 15 15 15 15 15 15 15 14 15 15 16 16 17 17 17 17 17 17 17 16 16 16 16 16 15 15
9 11 12 14 13 13 13 13 13 13 14 13 13 14 15 14 15 16 17 17 17 16 16 16 15 15 15 15 14 15 16 16 15 16 16 16 17 17 17 17 16 16 16 16 15 15 15 15 15
10 11 12 12 12 13 13 13 12 13 15 15 15 14 14 14 15 16 18 17 17 16 16 15 15 15 15 14 14 15 15 16 16 15 16 16 16 16 16 16 16 16 16 15 15 15 15 15 14
11 11 10 11 12 12 13 13 13 13 15 15 16 16 15 15 14 16 17 18 17 16 16 15 15 15 15 15 15 15 16 16 16 16 16 16 16 16 16 16 16 16 15 15 14 14 14 14 14
11 11 12 11 11 12 12 12 13 15 14 15 16 17 15 15 15 16 17 17 17 17 16 16 16 16 16 16 16 16 16 16 15 15 16 15 15 15 15 15 15 15 15 14 14 14 14 14 14
10 11 11 11 11 11 11 13 12 13 14 14 15 16 16 15 15 17 17 17 18 17 16 16 16 16 16 16 16 16 16 16 16 15 15 15 15 15 15 15 15 15 14 14 14 14 14 14 14
10 11 10 10 11 10 11 12 14 14 13 13 15 15 16 15 15 16 16 17 17 17 16 16 16 16 16 16 16 16 16 15 15 15 15 15 15 15 14 14 15 14 14 14 14 14 13 14 13
9 10 10 10 11 11 12 11 13 13 12 13 14 15 15 15 16 15 16 16 17 17 16 16 16 16 16 16 16 15 15 15 15 15 15 15 15 15 14 14 14 14 14 14 14 14 13 13 13
9 8 9 10 10 10 10 11 12 11 12 14 15 15 14 14 16 16 16 16 16 16 16 16 16 16 16 15 15 15 15 15 15 16 15 15 15 15 14 14 14 14 14 14 14 14 13 13 13
8 9 10 11 11 11 10 11 12 11 11 11 13 13 14 14 15 16 17 17 17 16 16 16 16 16 16 16 16 16 16 16 16 16 15 15 15 14 14 14 14 14 14 14 14 14 13 13 13
9 8 9 11 10 11 10 11 12 11 11 13 13 14 13 14 14 16 17 17 17 18 17 17 17 16 16 16 16 16 16 16 16 15 15 15 15 15 14 14 14 14 14 13 14 13 13 13 13
8 9 8 10 10 11 10 10 11 11 11 12 14 15 13 14 14 15 16 17 17 18 17 17 17 17 17 16 16 16 15 15 15 15 15 15 14 14 14 14 14 14 14 13 13 13 13 13 12
9 9 9 9 10 10 11 10 10 12 12 12 12 13 14 14 14 15 16 16 17 17 17 17 17 17 16 16 16 15 15 15 15 15 15 14 14 14 14 14 14 14 14 14 13 13 13 12 12
9 9 9 9 8 9 9 10 11 11 12 12 12 13 15 14 14 15 15 16 15 15 15 15 15 15 15 15 15 15 15 15 15 14 14 14 13 13 13 13 13 13 13 13 13 13 12 12 11
7 8 8 8 9 8 8 9 10 10 11 12 13 13 14 15 15 16 15 15 15 15 14 14 14 14 14 14 14 14 14 14 13 13 13 13 13 12 12 13 13 13 13 13 13 12 12 11 11
8 8 7 8 7 8 6 7 11 11 11 11 12 13 13 14 15 15 14 15 15 14 14 14 14 13 13 13 13 13 12 12 12 12 12 12 12 12 12 12 11 11 12 12 12 12 11 11 11
9 8 7 7 7 8 6 8 11 10 10 11 11 11 12 12 13 14 14 14 14 13 13 13 12 12 12 12 12 12 11 11 11 11 11 11 11 11 11 10 10 10 10 10 10 10 10 11 10
8 8 7 4 2 5 7 7 9 9 10 10 11 11 12 13 13 12 12 12 12 12 12 12 12 11 11 11 11 10 10 10 10 10 10 10 9 9 9 9 9 8 8 8 9 9 9 9 9
8 7 7 4 5 7 7 7 10 10 10 9 9 10 11 11 11 11 10 10 10 11 11 11 11 10 10 10 10 9 9 9 8 8 8 8 8 8 8 8 8 8 7 8 8 8 8 9 9
7 6 6 6 5 7 7 9 7 9 9 8 8 9 10 10 10 10 9 10 10 10 10 10 10 10 9 9 9 8 8 8 7 7 7 7 7 7 7 7 7 7 7 7 7 7 8 8 8
6 6 6 6 6 3 4 8 8 7 7 7 9 10 10 9 9 9 9 10 10 10 10 10 10 9 9 8 8 7 6 6 6 5 5 6 5 5 6 6 6 6 6 6 6 6 6 6 6
Height
1529 1530 1533 1535 1543 1544 1550 1544 1542 1539 1536 1534 1534 1534 1533 1533 1536 1544 1537 1541 1545 1548 1552 1556 1559 1562 1565 1566 1567 1569 1571 1572 1573 1573 1574 1575 1577 1577 1578 1578 1578 1577 1577 1577 1577 1578 1579 1581 1582
1529 1530 1533 1534 1542 1548 1546 1541 1539 1538 1535 1534 1533 1534 1535 1535 1534 1534 1537 1541 1545 1549 1553 1556 1559 1562 1565 1567 1568 1570 1571 1572 1573 1574 1575 1576 1578 1579 1579 1580 1579 1579 1578 1579 1579 1580 1581 1582 1583
1527 1529 1531 1534 1544 1543 1543 1539 1538 1535 1532 1532 1533 1534 1535 1535 1535 1534 1537 1540 1545 1550 1554 1557 1560 1563 1566 1568 1569 1571 1572 1573 1573 1574 1575 1577 1579 1580 1580 1580 1580 1580 1580 1581 1581 1582 1583 1584 1584
1527 1530 1532 1534 1542 1537 1535 1536 1536 1534 1532 1532 1533 1535 1536 1535 1536 1537 1538 1540 1545 1550 1555 1558 1561 1564 1567 1569 1570 1572 1574 1575 1574 1574 1576 1578 1580 1581 1581 1581 1581 1581 1582 1582 1583 1584 1584 1585 1585
1526 1528 1534 1537 1537 1535 1535 1535 1534 1535 1534 1534 1534 1535 1535 1536 1536 1537 1539 1542 1545 1550 1556 1559 1562 1565 1568 1570 1572 1573 1574 1576 1576 1576 1577 1579 1581 1581 1581 1582 1583 1583 1583 1584 1584 1585 1585 1586 1587
1527 1529 1534 1536 1534 1533 1534 1533 1533 1536 1536 1534 1535 1535 1536 1537 1537 1538 1541 1545 1547 1550 1557 1561 1563 1565 1568 1570 1572 1574 1575 1576 1577 1578 1579 1580 1580 1580 1581 1583 1584 1585 1585 1586 1587 1587 1587 1588 1588
1525 1528 1533 1532 1532 1532 1532 1532 1535 1537 1538 1537 1537 1536 1537 1537 1538 1540 1543 1546 1548 1552 1556 1561 1564 1565 1568 1570 1573 1574 1575 1576 1577 1578 1579 1580 1581 1582 1583 1584 1584 1585 1586 1587 1587 1587 1588 1588 1588
1524 1530 1533 1531 1530 1531 1532 1533 1534 1536 1539 1539 1537 1538 1539 1540 1540 1541 1544 1547 1549 1552 1556 1560 1564 1566 1568 1570 1573 1574 1574 1576 1578 1579 1580 1580 1581 1582 1583 1584 1586 1586 1587 1588 1588 1588 1588 1588 1589
1526 1532 1536 1532 1529 1530 1530 1533 1534 1536 1539 1540 1541 1541 1539 1539 1541 1543 1545 1547 1550 1552 1555 1559 1563 1566 1568 1570 1572 1573 1574 1575 1577 1579 1580 1581 1581 1582 1583 1584 1585 1586 1587 1588 1588 1588 1589 1589 1589
1522 1533 1534 1531 1529 1531 1530 1534 1536 1536 1539 1542 1541 1540 1538 1539 1542 1543 1546 1547 1550 1552 1555 1559 1561 1565 1567 1569 1571 1572 1573 1575 1577 1578 1579 1580 1581 1582 1583 1584 1585 1586 1587 1587 1588 1588 1588 1588 1588
1519 1521 1529 1530 1531 1530 1530 1534 1536 1535 1538 1541 1542 1540 1539 1540 1542 1544 1545 1547 1551 1553 1554 1558 1561 1563 1566 1568 1569 1571 1573 1574 1576 1577 1578 1579 1581 1582 1583 1584 1585 1586 1586 1587 1587 1587 1587 1587 1588
1517 1517 1525 1532 1530 1531 1531 1533 1535 1535 1536 1537 1540 1541 1540 1541 1542 1543 1546 1548 1549 1553 1554 1557 1559 1561 1564 1566 1568 1570 1572 1574 1575 1576 1578 1579 1580 1581 1582 1583 1583 1584 1585 1586 1586 1586 1586 1586 1586
1511 1515 1523 1529 1529 1532 1534 1534 1534 1531 1534 1535 1538 1540 1539 1539 1541 1544 1547 1548 1550 1552 1554 1556 1558 1560 1562 1564 1566 1568 1571 1573 1574 1575 1576 1578 1579 1579 1580 1581 1582 1583 1583 1584 1585 1585 1585 1585 1584
1511 1516 1520 1523 1526 1532 1532 1532 1534 1529 1531 1532 1535 1538 1539 1538 1541 1543 1545 1546 1550 1552 1553 1554 1557 1559 1561 1563 1565 1567 1569 1571 1572 1574 1575 1576 1577 1578 1579 1580 1580 1581 1582 1582 1583 1583 1583 1582 1582
1510 1516 1518 1521 1525 1530 1536 1531 1524 1529 1529 1531 1533 1534 1538 1538 1539 1541 1543 1546 1549 1553 1553 1553 1555 1558 1560 1562 1564 1566 1568 1570 1571 1572 1573 1574 1575 1576 1577 1578 1578 1579 1580 1580 1580 1580 1579 1579 1579
1511 1514 1520 1521 1523 1530 1532 1526 1523 1525 1527 1528 1530 1532 1536 1537 1538 1539 1541 1544 1546 1550 1550 1552 1553 1556 1558 1561 1563 1565 1566 1568 1569 1570 1571 1572 1573 1574 1575 1576 1577 1577 1577 1577 1577 1577 1576 1575 1576
1513 1514 1517 1522 1522 1525 1526 1523 1522 1522 1526 1523 1527 1530 1533 1534 1536 1537 1538 1541 1544 1548 1548 1548 1550 1553 1556 1558 1561 1562 1563 1565 1567 1568 1569 1570 1571 1572 1572 1573 1574 1574 1574 1573 1573 1573 1572 1572 1572
1508 1516 1516 1516 1521 1524 1524 1522 1522 1523 1523 1519 1523 1526 1529 1531 1533 1535 1536 1537 1540 1542 1545 1546 1547 1550 1552 1555 1557 1559 1560 1561 1563 1564 1566 1567 1567 1568 1568 1569 1569 1570 1569 1569 1569 1568 1567 1567 1566
1511 1516 1518 1517 1519 1523 1523 1524 1523 1523 1520 1519 1519 1522 1525 1528 1530 1532 1533 1535 1537 1539 1541 1544 1545 1546 1549 1551 1553 1555 1556 1558 1559 1561 1562 1563 1563 1563 1563 1563 1564 1564 1564 1564 1564 1563 1562 1561 1561
1509 1516 1519 1517 1517 1521 1524 1525 1520 1521 1517 1516 1516 1516 1521 1524 1528 1529 1530 1532 1535 1536 1539 1541 1542 1543 1545 1547 1549 1551 1553 1554 1555 1556 1557 1557 1557 1557 1557 1558 1558 1558 1558 1558 1558 1557 1556 1555 1556
1512 1514 1520 1518 1519 1522 1524 1524 1518 1517 1516 1515 1514 1513 1516 1519 1523 1526 1527 1529 1532 1533 1536 1538 1539 1540 1541 1543 1545 1547 1548 1550 1551 1551 1552 1552 1552 1552 1552 1552 1552 1552 1552 1551 1552 1552 1551 1549 1549
1512 1510 1512 1516 1520 1524 1518 1521 1513 1507 1510 1510 1508 1507 1510 1513 1519 1524 1525 1526 1528 1530 1532 1534 1535 1536 1537 1539 1541 1543 1545 1545 1546 1546 1546 1546 1546 1546 1546 1546 1545 1546 1545 1545 1545 1545 1545 1544 1543
1508 1509 1512 1517 1522 1522 1524 1524 1509 1509 1504 1499 1506 1508 1507 1509 1514 1519 1522 1523 1525 1526 1528 1530 1532 1533 1535 1536 1538 1540 1540 1541 1541 1541 1541 1541 1541 1540 1540 1539 1539 1538 1538 1538 1538 1538 1538 1538 1538
1507 1512 1516 1521 1521 1529 1527 1526 1508 1504 1498 1498 1499 1499 1501 1505 1509 1511 1516 1519 1521 1522 1525 1527 1528 1530 1532 1534 1535 1536 1536 1536 1536 1536 1536 1536 1536 1535 1534 1534 1533 1533 1532 1532 1532 1532 1531 1532 1533
1507 1513 1528 1529 1533 1526 1531 1530 1503 1502 1497 1494 1493 1494 1496 1499 1502 1505 1509 1511 1515 1518 1521 1523 1524 1527 1529 1530 1531 1531 1532 1532 1532 1531 1531 1531 1530 1530 1529 1528 1528 1527 1527 1526 1527 1526 1526 1527 1528
1508 1510 1520 1528 1530 1524 1532 1520 1501 1492 1490 1492 1493 1494 1492 1495 1496 1497 1502 1506 1510 1514 1517 1519 1522 1523 1525 1526 1527 1527 1527 1527 1527 1526 1526 1525 1524 1524 1523 1523 1522 1521 1521 1521 1522 1521 1522 1522 1523
1507 1511 1517 1534 1547 1536 1521 1517 1499 1491 1491 1491 1489 1488 1488 1489 1490 1491 1494 1501 1506 1510 1513 1516 1519 1520 1522 1522 1523 1523 1522 1522 1522 1521 1520 1520 1519 1518 1518 1518 1517 1517 1517 1518 1518 1519 1518 1518 1519
1506 1510 1518 1530 1536 1524 1519 1520 1501 1496 1495 1490 1487 1485 1484 1485 1485 1487 1492 1499 1504 1508 1511 1513 1515 1517 1519 1519 1519 1518 1518 1517 1517 1516 1516 1515 1514 1514 1514 1514 1514 1514 1514 1514 1515 1514 1515 1514 1514
1509 1515 1518 1518 1525 1517 1518 1504 1496 1494 1492 1492 1487 1486 1484 1485 1485 1487 1492 1499 1503 1506 1508 1510 1512 1514 1515 1515 1514 1514 1513 1512 1512 1511 1511 1510 1510 1510 1510 1510 1511 1511 1511 1511 1512 1511 1511 1511 1511
1507 1509 1511 1519 1524 1533 1530 1507 1489 1491 1491 1489 1486 1484 1484 1484 1486 1490 1495 1499 1503 1504 1505 1508 1508 1510 1512 1511 1510 1509 1508 1507 1506 1506 1506 1506 1506 1506 1506 1506 1506 1507 1508 1508 1508 1509 1509 1508 1507
Wind_Speed
8 9 8 6 2 2 2 3 0 3 2 2 1 3 4 4 5 3 11 26 24 25 27 25 21 18 16 14 14 12 10 8 8 8 11 12 13 11 10 10 11 11 10 10 10 10 9 8 7
9 10 9 4 4 4 3 2 1 3 6 5 2 4 2 2 4 4 22 24 26 25 26 24 21 19 17 15 14 12 10 11 9 11 13 13 13 11 9 9 11 12 13 12 11 10 9 8 8
8 12 6 3 3 5 3 3 1 7 13 6 2 3 1 1 4 15 22 25 27 25 26 23 21 18 17 16 13 12 11 10 10 13 15 13 13 12 7 10 11 12 13 13 13 11 10 10 10
6 5 4 3 5 3 4 1 3 9 4 6 0 3 3 2 11 12 24 29 29 25 24 23 21 20 17 15 13 12 8 6 8 14 14 13 13 12 8 10 10 11 11 12 13 12 12 11 10
6 3 2 3 5 2 2 0 4 4 5 3 2 2 3 7 6 9 21 26 29 26 23 23 20 19 17 15 13 11 8 5 7 10 15 14 13 12 10 8 8 9 9 10 10 11 10 10 9
4 2 3 6 6 4 1 2 3 5 5 4 1 2 2 7 8 14 20 22 25 26 21 20 18 18 17 15 13 10 7 7 8 8 9 13 12 10 10 8 8 8 7 7 7 7 7 6 7
4 3 2 5 7 4 3 6 5 3 4 6 3 1 1 9 12 19 18 21 21 23 22 21 18 17 16 14 13 10 8 5 7 8 10 6 3 3 6 7 8 7 7 6 5 5 4 4 4
7 2 2 3 8 5 2 3 7 7 3 5 5 5 3 6 16 19 19 19 20 23 21 20 18 17 17 16 12 9 6 4 5 6 7 7 7 6 6 5 5 7 6 5 4 3 3 3 4
11 3 3 3 5 5 5 1 3 7 8 14 10 14 11 10 19 20 20 20 21 22 20 22 18 17 18 17 14 11 9 7 5 4 6 6 5 5 5 6 6 6 4 3 2 1 1 3 4
8 8 6 2 1 3 6 5 2 4 7 4 14 16 5 15 19 20 20 20 21 22 21 19 17 18 18 18 15 13 10 8 5 4 4 4 4 4 5 5 5 5 4 2 1 1 2 3 5
11 13 10 5 5 6 4 2 2 2 4 4 14 20 5 13 19 20 18 16 15 17 18 18 16 16 17 18 17 13 8 7 7 6 5 5 5 5 5 5 4 4 3 3 3 4 4 5 7
9 23 20 19 6 4 3 3 3 3 3 3 11 16 16 13 19 21 18 16 17 17 15 16 17 17 17 19 18 15 10 6 6 6 5 5 5 5 5 5 5 5 5 5 5 6 6 7 8
7 12 19 29 6 1 4 3 4 14 15 13 12 14 21 7 16 19 17 17 17 16 14 13 14 16 16 18 18 16 12 9 8 7 6 5 4 4 5 6 6 6 6 5 5 6 6 7 8
10 10 23 18 13 13 10 6 4 14 8 10 15 11 19 12 13 17 19 20 19 15 14 12 11 12 13 14 14 13 11 9 8 8 7 6 6 6 5 5 6 6 7 8 8 9 9 9 11
3 8 7 14 19 8 11 15 15 16 19 20 20 15 17 16 9 16 18 17 17 15 14 12 11 11 10 9 10 10 9 8 6 6 8 7 6 6 7 7 7 7 8 10 11 11 13 13 14
4 6 6 5 17 9 14 14 13 14 15 21 21 25 19 16 11 12 17 18 19 18 17 13 13 12 12 10 9 9 9 9 8 7 8 9 9 9 10 10 10 9 10 12 13 14 15 16 17
3 7 8 7 16 9 10 4 6 9 16 28 24 24 22 20 13 10 13 18 18 18 17 17 15 14 12 12 12 13 13 13 11 12 11 11 12 12 14 14 14 13 15 16 17 18 18 20 21
9 5 3 4 8 6 8 2 6 7 14 24 27 30 28 24 15 11 11 15 16 18 17 17 16 15 14 14 15 16 15 15 14 15 14 14 15 16 18 19 19 18 20 21 21 21 22 22 24
7 5 6 3 9 7 8 4 7 11 9 14 21 27 30 28 18 12 12 13 16 16 15 15 15 15 14 14 14 15 16 16 17 17 17 18 19 20 22 23 23 22 22 22 22 23 23 24 24
9 6 3 2 9 7 9 13 13 12 11 18 22 31 32 36 23 12 14 14 17 18 19 19 18 17 17 17 16 17 18 19 19 20 21 23 25 26 26 26 26 26 26 26 25 25 27 27 26
2 8 5 5 4 2 7 6 9 7 12 20 26 29 31 33 27 18 16 16 18 18 20 22 22 21 21 21 22 22 22 22 22 23 23 25 26 27 28 29 28 28 29 29 28 27 25 25 24
3 5 7 10 9 5 2 4 4 12 15 17 26 30 32 34 31 21 16 19 20 19 20 20 19 18 18 18 18 19 19 19 20 20 22 23 23 23 23 24 24 25 26 26 25 24 24 24 24
4 5 5 4 4 3 1 2 4 6 18 18 20 26 32 28 31 29 25 22 22 20 19 19 17 16 16 16 16 17 18 20 21 22 23 23 23 24 25 26 27 26 27 27 27 27 26 24 22
7 6 6 4 2 2 4 4 4 5 8 4 19 29 35 35 33 35 25 24 23 23 21 19 16 16 15 15 16 16 17 18 19 19 19 18 18 18 19 20 20 21 21 21 20 20 21 21 21
4 5 2 1 1 4 1 3 10 6 6 5 7 17 24 33 38 38 31 30 28 26 22 19 17 15 14 14 15 16 17 17 18 19 20 21 21 21 21 22 21 21 21 21 19 18 18 20 21
3 4 4 6 4 3 1 5 5 4 4 7 11 13 13 12 16 28 34 33 30 27 22 18 15 13 13 14 14 15 15 16 17 18 19 20 20 20 20 18 18 17 16 14 13 13 13 15 19
3 1 3 6 3 2 3 4 9 5 5 5 9 10 12 16 18 21 31 32 30 26 20 15 13 13 12 12 13 14 15 15 16 16 16 16 16 15 15 14 14 14 13 13 12 12 14 16 18
3 6 2 2 3 3 2 3 4 2 3 7 7 11 12 11 15 19 27 29 25 20 17 14 12 11 12 13 14 15 16 17 17 16 16 15 14 13 12 12 12 12 13 13 13 12 13 15 16
3 1 4 3 2 3 1 4 6 5 3 6 13 13 8 10 15 21 27 25 23 19 16 14 12 12 13 14 16 18 18 18 18 17 16 15 14 13 13 13 13 12 13 12 13 12 12 12 12
3 3 4 3 4 1 1 6 3 6 5 4 10 8 5 5 14 20 23 23 21 19 17 15 14 14 15 17 18 18 18 18 17 16 15 15 15 15 14 14 13 13 13 12 11 11 11 10 10
Wind_Direction
185 172 164 157 129 73 198 241 230 268 237 313 165 161 190 135 163 191 166 166 165 164 160 166 163 163 165 164 157 155 145 138 124 114 121 126 129 119 103 87 73 75 85 95 106 110 115 107 99
169 164 161 145 117 151 228 244 97 265 285 320 119 119 138 151 174 159 155 165 164 165 161 164 162 162 162 162 160 157 155 138 120 117 122 128 129 118 110 93 77 79 84 94 100 109 112 109 102
159 166 156 115 129 179 184 180 294 293 310 219 106 87 108 135 178 156 163 163 164 169 162 161 160 160 163 162 160 156 154 140 122 120 119 122 128 121 118 104 86 87 90 94 98 105 110 109 102
151 131 92 131 181 217 148 164 357 335 35 178 274 118 119 139 151 157 167 166 164 167 163 159 158 166 167 162 160 157 149 124 113 126 122 124 130 133 137 113 99 98 97 97 100 104 104 102 98
172 142 116 144 179 193 187 343 31 354 327 337 194 154 99 145 159 158 169 168 165 162 164 162 169 170 170 167 160 158 147 122 98 131 128 130 136 146 124 107 98 99 99 100 102 105 108 107 100
122 106 157 183 177 155 202 27 94 28 340 1 42 95 121 149 156 162 159 172 168 165 164 171 172 172 173 169 172 173 157 123 111 121 157 142 152 157 134 126 114 107 96 86 81 80 80 83 86
95 104 228 171 164 148 152 121 77 24 350 16 345 169 209 164 155 155 159 166 171 173 170 174 179 179 174 174 182 181 167 134 122 141 158 171 167 117 139 134 130 125 119 115 110 100 93 74 57
106 74 157 211 172 153 115 113 100 63 27 8 10 12 31 196 162 159 160 167 172 176 179 180 181 184 180 179 189 190 171 160 148 155 165 180 178 165 163 158 154 149 141 132 116 93 67 37 32
191 39 223 205 167 135 112 124 77 104 50 69 55 23 318 182 173 163 164 166 172 177 181 182 186 190 183 187 185 195 191 186 179 171 174 187 189 181 174 172 168 169 164 143 121 90 29 352 347
160 201 243 183 32 120 92 86 10 109 76 19 24 24 16 175 178 176 173 171 175 175 178 187 197 202 192 195 193 197 204 191 201 198 197 200 198 194 196 194 194 190 194 192 212 291 311 323 323
171 200 189 242 146 115 76 66 16 93 99 53 357 2 349 189 186 193 186 182 181 179 182 190 195 199 203 206 212 216 220 212 213 216 219 215 214 217 216 216 218 218 223 239 255 272 285 300 307
180 217 219 233 127 156 175 210 292 231 187 333 353 358 359 221 202 200 197 187 184 188 189 195 202 206 210 211 215 224 227 224 220 224 229 222 227 231 231 231 235 242 246 260 273 279 282 287 294
199 162 190 217 205 202 174 215 253 266 272 279 293 337 0 247 221 210 206 205 192 194 194 199 205 205 206 206 214 220 223 227 225 227 230 229 234 235 236 236 236 246 255 267 284 283 289 296 302
189 186 198 188 184 243 281 252 236 265 268 271 280 313 343 340 240 218 213 215 208 200 200 197 195 200 204 209 211 216 219 219 227 232 232 235 235 239 247 252 247 252 263 268 273 283 292 299 304
101 163 141 175 169 173 222 268 233 258 269 280 275 281 320 344 271 230 224 225 221 217 206 203 203 208 206 207 208 209 209 214 226 235 235 235 239 250 264 265 266 268 271 274 279 282 287 293 296
138 144 177 160 158 172 156 248 265 278 272 274 270 269 284 323 309 259 236 225 224 223 218 210 211 217 220 218 217 216 221 229 233 238 241 244 251 258 270 274 274 274 273 275 279 284 287 291 294
203 183 181 172 180 160 203 195 243 243 246 258 260 265 269 297 308 284 238 228 225 228 228 225 222 220 221 222 227 229 232 240 243 245 249 254 260 263 267 272 273 274 275 276 280 284 289 292 293
179 118 146 162 183 171 204 264 330 228 214 238 236 254 261 279 301 289 249 226 222 221 226 225 222 220 225 224 230 233 235 240 245 253 255 258 263 266 267 269 272 272 271 274 279 284 286 287 290
118 121 121 134 173 175 191 208 251 231 225 244 237 239 252 265 293 277 250 234 223 222 222 224 220 220 223 229 236 242 249 254 257 259 260 261 262 265 268 269 272 273 274 278 278 281 283 285 290
138 125 154 71 170 167 181 220 228 206 222 225 226 237 252 259 271 284 248 238 231 226 229 231 232 233 235 239 246 252 256 258 259 260 261 262 263 265 268 271 271 272 275 276 278 280 284 283 287
86 162 176 151 139 250 163 243 231 227 223 226 234 245 241 247 258 276 251 236 227 227 229 232 235 236 238 242 245 250 254 259 261 262 263 264 265 266 267 268 269 270 272 274 275 275 276 280 279
139 187 156 142 139 194 188 266 237 217 229 219 221 235 232 243 252 254 264 236 228 225 227 228 228 227 229 235 239 244 249 254 259 262 265 266 266 266 267 268 270 271 274 274 274 272 271 270 272
191 145 130 108 99 123 351 297 267 209 227 225 225 235 236 249 250 249 263 242 228 219 218 218 219 223 229 236 243 249 254 258 263 266 269 269 269 270 271 273 275 276 275 275 273 270 268 267 264
134 94 58 61 87 283 211 194 251 214 233 232 223 226 237 240 255 259 246 227 222 218 217 217 221 228 235 241 247 254 261 265 268 270 271 271 270 269 271 272 274 276 276 276 274 272 265 257 257
87 91 86 108 191 222 147 199 264 257 241 220 238 244 241 239 240 245 226 215 216 216 215 217 221 228 240 251 259 264 267 267 269 271 272 273 275 275 274 274 274 274 275 275 274 268 264 253 254
172 149 149 173 188 212 37 228 246 257 311 292 280 271 259 239 229 226 221 214 209 209 210 214 223 236 250 259 264 267 271 274 276 277 278 278 278 279 279 278 277 276 275 276 276 268 255 258 254
182 164 132 104 30 68 216 289 286 317 316 337 296 280 277 256 247 228 210 207 203 201 204 213 228 241 249 259 268 275 279 281 280 280 279 279 280 280 280 278 274 269 266 265 265 265 260 253 255
137 154 74 11 138 236 275 268 236 270 311 316 325 324 288 261 224 210 200 195 194 197 204 217 229 241 253 265 275 281 283 283 281 278 276 274 274 275 275 274 270 265 263 264 266 267 261 259 259
129 133 55 112 120 186 269 261 211 208 240 291 305 331 304 252 209 192 188 190 194 199 207 217 228 245 260 272 280 283 281 278 274 271 268 266 265 264 263 262 263 265 265 266 269 266 261 257 257
105 171 151 146 234 131 139 258 202 220 255 274 339 359 346 242 196 184 188 194 202 208 213 224 236 253 267 279 283 282 280 275 269 264 260 259 259 258 256 255 258 262 265 266 266 267 262 258 258